MSG 4 DEB (COOLER COVER), 40989

Orbit data source: Space-Track

MSG 4 DEB (COOLER COVER), 40989 is space debris in GEO originally from a launch on Wed, 15 Jul 2015 UTC launched from the French Guiana (FRGUI). Debris objects in space refer to the collection of defunct objects orbiting the Earth. Examples of debris include non-operational satellites, rocket bodies, and fragments generated from explosions, collisions, or faulty payload assembly.

Not visible in the next 10 days
Identifier
40989, 2015-034E
Orbit
GEO
Country
Flag of UnknownUnknown / EUME
Related business
Manufacturer
SENER
Mission
Spacecraft
Bus & Motor
MSG COVER, Unknown motor
Mass
~0 kg wet, ~4 kg dry
Launch date (UTC)
2015-07-15 (11 years ago)
Launch vehicle
Unknown
Launch site
French Guiana (FRGUI)
Object type
Payload
Rocket body
Debris
Shape & HBR
Box, 0.6 m
Radar Cross Section
0.435 m²

Expand to show TLE details & history
Last TLE update: 1 day ago

TLE from 1 day ago
0 MSG 4 DEB (COOLER COVER)
1 40989U 15034E   26022.52792727 -.00000218  00000-0  00000-0 0  9998
2 40989   6.7416  81.2827 0032514 280.3943  64.1246  1.01538704 38854
Epoch: 2026-01-22T12:40Z
TLE epoch observation values (Epoch: 2026-01-22T12:40:12.916Z)
Latitude
-1.76744°
Longitude
114.31384°
Altitude
35,376.601 km
Speed
3.092 km/s
True Right ascension
04h 24m 59s
True Declination
-1° 45' 56"
Sunlit
Object was in daylight at epoch
Visualization orbit readout
Latitude
Unknown
Longitude
Unknown
Altitude
Unknown
Speed
Unknown
Apparent Right ascension
Unknown
Apparent Declination
Unknown
Sunlit
N/A
Visualization observer readout
Local Sidereal Time
21:09:47
Azimuth
Unknown
Elevation
Unknown
Doppler factor
Unknown
Orbital elements
Apogee altitude
35,572.142 km
Perigee altitude
35,300.232 km
Semi-major axis
41,814.324 km
Eccentricity
0.00325
Inclination
6.7416°
RAAN
81.2827°
Arg. of periapsis
280.3943°
True anomaly
64.46042°
Mean anomaly
64.1246°
Eccentric anomaly
64.29245°
Mean motion
0.25384 °/min
Orbital period
1,418.23 mins
BSTAR
0
Loading maneuver chart data...
Computing Atmospheric mass density...
Loading historical data...
Loading historical data...
Loading historical data...
Loading historical data...
Loading historical data...
Loading historical data...
Loading historical data...

Documentation

Showing up to 5 results
|